Regional Weather Roundup
Issued by NWS

Home | Current Version | Previous Version | Text Only | Print | Product List | Glossary Off
Versions: 1 2 3 4 5 6 7 8 9 10 11 12 13 14 15 16 17 18 19 20 21 22 23 24 25 26 27 28 29 30 31 32 33 34 35 36 37 38 39 40 41 42 43 44 45 46 47 48 49 50

000
ASUS43 KDMX 150201
RWRIA

WEATHER ROUNDUP FOR IOWA
NATIONAL WEATHER SERVICE DES MOINES IA
800 PM CST THU DEC 14 2017

NOTE: "FAIR" INDICATES FEW OR NO CLOUDS BELOW 12,000 FEET WITH NO
SIGNIFICANT WEATHER AND/OR OBSTRUCTIONS TO VISIBILITY.

* - THESE STATIONS ARE NOT NWS STATIONS...THUS NOT UNDER NWS
QUALITY CONTROL.  THEY ALSO DO NOT REPORT WEATHER SUCH
AS PRECIPITATION OR FOG.

IAZ001>003-012>014-020>022-031>034-043>046-150300-
   NORTHWEST IOWA

CITY           SKY/WX    TMP DP  RH WIND       PRES   REMARKS
CARROLL *      CLOUDY    32  25  74 W5        30.08R WCI  27
CHEROKEE *     CLOUDY    32  31  97 NW9       30.08S WCI  24
DENISON *      LGT SNOW  32  27  80 NW8       30.11R WCI  25
LE MARS *      CLOUDY    34  28  80 NW7       30.10S WCI  28
ORANGE CITY *  CLOUDY    34  28  80 NW7       30.08S WCI  28
SHELDON *      CLOUDY    28  27  93 N8        30.06R WCI  20
SIOUX CITY     CLOUDY    36  28  73 NW13      30.12R WCI  27
SPENCER        LGT SNOW  28  26  92 NW7       30.08R FOG     WCI  21
STORM LAKE *   CLOUDY    32  27  80 NW9       30.06S WCI  24
$$

IAZ055>058-069>071-079>083-090>094-150300-
   SOUTHWEST IOWA

CITY           SKY/WX    TMP DP  RH WIND       PRES   REMARKS
ATLANTIC *     CLOUDY    28  23  80 CALM      30.09F
AUDUBON *      CLOUDY    30  25  80 CALM      30.09S
CLARINDA *     CLOUDY    32  25  74 CALM        N/A
COUNCIL BLFS * CLOUDY    34  25  69 W5        30.10S WCI  30
CRESTON *      MOCLDY    28  23  80 NW8       30.10R WCI  20
HARLAN  *      CLOUDY    30  23  74 CALM      30.13S
LAMONI         MOCLDY    28  21  75 W6        30.09S WCI  22
RED OAK *      CLOUDY    30  23  74 CALM      30.11R
SHENANDOAH *   MOCLDY    32  23  69 CALM      30.13R
$$

IAZ047>049-059>061-072>074-084-150300-
   CENTRAL IOWA

CITY           SKY/WX    TMP DP  RH WIND       PRES   REMARKS
AMES           CLOUDY    29  23  78 W8        30.08R WCI  21
ANKENY *       CLOUDY    30  23  74 W5        30.09F WCI  25
BOONE *        CLOUDY    30  23  74 NW8       30.06S WCI  23
CHARITON *     CLOUDY    30  19  64 S3        30.08S
DES MOINES     CLOUDY    31  21  66 W5        30.09S WCI  26
GRINNELL*      CLOUDY    28  20  74 SW3       30.08S
KNOXVILLE *    CLOUDY    28  18  64 SW5       30.07S WCI  23
MARSHALLTOWN   CLOUDY    26  20  77 SW6       30.05S WCI  19
NEWTON *       CLOUDY    28  19  69 SW5       30.08S WCI  23
PELLA *        CLOUDY    28  19  69 SW3       30.09F
$$

IAZ004>006-015-016-023>025-035-036-150300-
   NORTH CENTRAL IOWA

CITY           SKY/WX    TMP DP  RH WIND       PRES   REMARKS
ALGONA *       CLOUDY    28  23  80 NW8       30.06R WCI  20
CLARION *      CLOUDY    28  23  80 NW7       30.05F WCI  21
ESTHERVILLE    CLOUDY    25  24  96 NW10      30.06R WCI  15
FORT DODGE *   CLOUDY    30  23  75 NW6       30.07S WCI  24
MASON CITY     CLOUDY    26  19  74 NW13      30.05S WCI  15
FOREST CITY *  CLOUDY    28  23  80 NW8       30.04S WCI  20
WEBSTER CITY * CLOUDY    30  23  74 W6        30.04F WCI  24
IOWA FALLS *   CLOUDY    28  22  77 W6        30.06S WCI  22
$$

IAZ007>011-017>019-026>030-037>042-050>054-066-150300-
   NORTHEAST IOWA

CITY           SKY/WX    TMP DP  RH WIND       PRES   REMARKS
CEDAR RAPIDS   CLOUDY    25  17  72 SW6       30.06S WCI  18
CHARLES CITY * CLOUDY    25  21  86 W9        30.03F WCI  15
CLINTON *      CLOUDY    25  17  72 W12       30.08F WCI  14
DECORAH *      CLOUDY    23  19  86 VRB6G13   30.00S WCI  16
DUBUQUE        CLOUDY    23  16  74 SW7       30.03F WCI  15
MONTICELLO *   CLOUDY    25  16  68 SW6       30.05F WCI  18
OELWEIN *      CLOUDY    25  21  86 W10       30.04S WCI  15
WATERLOO       CLOUDY    25  18  74 W6        30.05S WCI  18
$$

IAZ064-065-067-068-078-150300-
   EAST CENTRAL IOWA

CITY           SKY/WX    TMP DP  RH WIND       PRES   REMARKS
DAVENPORT      CLOUDY    25  16  68 W12       30.11S WCI  14
IOWA CITY      CLOUDY    27  17  66 S5        30.10F WCI  22
MT. PLEASANT * CLOUDY    26  18  70 CALM      30.11S
MUSCATINE *    CLOUDY    27  16  63 CALM      30.11F
QUAD CITIES    CLOUDY    27  17  66 W9        30.09S WCI  18
$$

IAZ062-063-075>077-085>089-095>099-150300-
   SOUTHEAST IOWA

CITY           SKY/WX    TMP DP  RH WIND       PRES   REMARKS
BURLINGTON     CLOUDY    27  17  66 NW5       30.10F WCI  22
FAIRFIELD *    CLOUDY    27  18  69 CALM      30.09F
FORT MADISON * CLOUDY    27  18  69 CALM      30.12R
KEOKUK *       CLOUDY    28  19  69 CALM      30.11S
OSKALOOSA *    CLOUDY    27  20  76 SW3       30.09S
OTTUMWA        CLOUDY    28  18  66 CALM      30.09F
WASHINGTON *   CLOUDY    27  19  74 CALM      30.10F
$$

ABBREVIATIONS USED IN REMARKS
   TC - TEMPERATURES IN CELSIUS
  WCI - WIND CHILL INDEX
   HX - HEAT INDEX
  VSB - VISIBILITY
$$





USA.gov is the U.S. government's official web portal to all federal, state and local government web resources and services.